2018-051B

Last updated on June 12, 2018, 12:15 a.m. UTC

1 43494U 18051B   18162.12168990  .10163598  12520-4  30976-3 0  9998
2 43494  51.6138  47.0004 0001650 150.7242 209.5909 16.45237973   739

Satellite is not in orbit.